Weather History for Providence, RI

Change the Weather History Date:

Thursday, October 4, 2012

  Actual Average Record
Temperature  
Mean Temperature 64 °F 58 °F  
Max Temperature 66 °F 67 °F 85 °F (1959)
Min Temperature 61 °F 48 °F 32 °F (1945)
Degree Days  
Heating Degree Days 1 8  
Month to date heating degree days 10 30  
Since 1 July heating degree days 86 127  
Cooling Degree Days 0 1  
Month to date cooling degree days 0 4  
Year to date cooling degree days 830 740  
Growing Degree Days 14 (Base 50)    
Moisture  
Dew Point 61 °F    
Average Humidity 91    
Maximum Humidity 100    
Minimum Humidity 79    
Precipitation  
Precipitation 0.17 in 0.13 in 0.90 in (1999)
Month to date precipitation 0.53 0.51  
Year to date precipitation 31.63 35.03  
Snow  
Snow 0.00 in 0.00 in 0.00 in (2009)
Month to date snowfall 0.0 0.0  
Since 1 July snowfall 0.0 0.0  
Since 1 September snowfall 0.0 0.0  
Snow Depth -    
Sea Level Pressure  
Sea Level Pressure 30.10 in    
Wind  
Wind Speed 5 mph (North)    
Max Wind Speed 10 mph    
Max Gust Speed 14 mph    
Visibility 7 miles    
Events Rain    
T = Trace of Precipitation, MM = Missing Value Source: NWS Daily Summary

Daily Weather History Graph

Daily Weather History Graph

Search for Another Location

Airport:

Trip Planner

Search our weather history database for the weather conditions in past years. The results will help you decide how hot, cold, wet, or windy it might be!

Date:

Astronomy

Oct. 04, 2012 Rise Set
Actual Time 6:46 AM EDT 6:21 PM EDT
Civil Twilight 6:18 AM EDT 6:49 PM EDT
Nautical Twilight 5:46 AM EDT 7:21 PM EDT
Astronomical Twilight 5:13 AM EDT 7:53 PM EDT
Moon 8:51 PM EDT (10/4) 11:04 AM EDT (10/4)
Length of Visible Light 12h 30m
Length of Day
11h 35m
Waning Gibbous, 82% of the Moon is Illuminated
Oct 4
Waning Gibbous
Oct 8
Last Quarter
Oct 15
New
Oct 21
First Quarter
Oct 29
Full

Hourly Weather History & Observations

Time (EDT) Temp. Dew Point Humidity Pressure Visibility Wind Dir Wind Speed Gust Speed Precip Events Conditions
12:51 AM 62.1 °F 60.1 °F 93% 30.15 in 3.0 mi NNE 8.1 mph - 0.00 in   Light Drizzle
1:51 AM 62.1 °F 60.1 °F 93% 30.14 in 7.0 mi NNE 4.6 mph - 0.00 in   Overcast
2:51 AM 62.1 °F 60.1 °F 93% 30.14 in 4.0 mi NNE 5.8 mph - N/A   Overcast
3:51 AM 62.1 °F 60.1 °F 93% 30.13 in 4.0 mi NNE 8.1 mph - N/A   Overcast
4:51 AM 62.1 °F 60.1 °F 93% 30.16 in 3.0 mi North 4.6 mph - N/A   Overcast
5:00 AM 60.8 °F 60.8 °F 100% 30.15 in 2.5 mi North 6.9 mph - N/A   Overcast
5:51 AM 61.0 °F 60.1 °F 97% 30.14 in 2.5 mi NNE 6.9 mph - 0.00 in   Overcast
6:24 AM 62.6 °F 60.8 °F 94% 30.14 in 3.0 mi North 6.9 mph - N/A   Overcast
6:51 AM 62.1 °F 60.1 °F 93% 30.15 in 4.0 mi North 6.9 mph - N/A   Overcast
7:51 AM 61.0 °F 59.0 °F 93% 30.15 in 5.0 mi North 5.8 mph - N/A   Overcast
8:51 AM 62.1 °F 59.0 °F 90% 30.16 in 10.0 mi North 6.9 mph - N/A   Overcast
9:51 AM 62.1 °F 60.1 °F 93% 30.16 in 7.0 mi North 5.8 mph - N/A   Overcast
10:51 AM 64.4 °F 60.8 °F 88% 30.15 in 10.0 mi NNE 6.9 mph - N/A   Overcast
11:51 AM 64.4 °F 60.8 °F 88% 30.15 in 10.0 mi North 6.9 mph - N/A   Overcast
12:04 PM 66.2 °F 60.8 °F 83% 30.14 in 10.0 mi NNW 6.9 mph - N/A   Overcast
12:51 PM 66.0 °F 60.1 °F 81% 30.12 in 10.0 mi North 9.2 mph - N/A   Overcast
1:51 PM 64.9 °F 60.1 °F 84% 30.10 in 10.0 mi North 5.8 mph - N/A   Overcast
2:51 PM 64.9 °F 60.1 °F 84% 30.07 in 10.0 mi NE 6.9 mph - N/A   Overcast
3:51 PM 64.9 °F 60.1 °F 84% 30.06 in 10.0 mi NE 6.9 mph - N/A   Overcast
4:00 PM 64.4 °F 60.8 °F 88% 30.06 in 10.0 mi NE 5.8 mph - N/A   Overcast
4:51 PM 64.9 °F 60.1 °F 84% 30.07 in 10.0 mi Calm Calm - N/A   Overcast
5:00 PM 64.4 °F 60.8 °F 88% 30.08 in 10.0 mi NNW 4.6 mph - N/A   Overcast
5:51 PM 64.9 °F 60.1 °F 84% 30.07 in 10.0 mi North 4.6 mph - N/A   Overcast
6:27 PM 64.4 °F 60.8 °F 88% 30.07 in 10.0 mi NNW 3.5 mph - N/A   Overcast
6:51 PM 64.9 °F 60.1 °F 84% 30.07 in 10.0 mi North 5.8 mph - N/A   Overcast
7:07 PM 64.4 °F 60.8 °F 88% 30.07 in 10.0 mi North 5.8 mph - N/A   Overcast
7:22 PM 64.4 °F 60.8 °F 88% 30.06 in 10.0 mi North 4.6 mph - N/A   Overcast
7:51 PM 64.0 °F 61.0 °F 90% 30.06 in 10.0 mi NNE 3.5 mph - N/A   Overcast
8:25 PM 64.4 °F 60.8 °F 88% 30.06 in 5.0 mi Calm Calm - N/A   Overcast
8:51 PM 64.0 °F 61.0 °F 90% 30.06 in 5.0 mi NNE 3.5 mph - N/A   Overcast
9:51 PM 63.0 °F 61.0 °F 93% 30.07 in 5.0 mi SSW 3.5 mph - 0.00 in Rain Light Rain
10:25 PM 62.6 °F 62.6 °F 100% 30.06 in 3.0 mi South 5.8 mph - 0.06 in Rain Rain
10:38 PM 62.6 °F 62.6 °F 100% 30.04 in 2.5 mi SSE 10.4 mph - 0.12 in Rain Heavy Rain
10:49 PM 62.6 °F 62.6 °F 100% 30.04 in 3.0 mi South 5.8 mph - N/A Rain Light Rain
10:51 PM 62.6 °F 62.6 °F 100% 30.04 in 3.0 mi SSW 5.8 mph - N/A Rain Light Rain
10:59 PM 62.6 °F 62.6 °F 100% 30.05 in 3.0 mi WNW 4.6 mph - 0.00 in Rain Light Rain
11:11 PM 62.6 °F 62.6 °F 100% 30.05 in 2.5 mi NNW 4.6 mph - 0.01 in Rain Light Rain
11:51 PM 63.0 °F 62.1 °F 97% 30.04 in 2.5 mi Calm Calm - 0.01 in   Overcast